Regional Weather Roundup
Issued by NWS Grand Forks, ND

Home | Current Version | Previous Version | Graphics & Text | Print | Product List | Glossary On
Versions: 1 2 3 4 5 6 7 8 9 10 11 12 13 14 15 16 17 18 19 20 21 22 23 24 25 26 27 28 29 30 31 32 33 34 35 36 37 38 39 40 41 42 43 44 45 46 47 48 49 50
000
ASUS43 KFGF 061031
RWRFGF
PRAIRIE TO PINES  WEATHER ROUNDUP
NATIONAL WEATHER SERVICE EASTERN NORTH DAKOTA/GRAND FORKS ND
500 AM CDT MON JUL 06 2015

 **SATELLITE DATA USED TO AUGMENT SKY COVER AT AUTOMATED STATIONS**
 *****  WEATHER ACROSS EASTERN NORTH DAKOTA  *****

CITY           SKY/WX    TMP DP  RH WIND       PRES   REMARKS
GRAND FORKS    CLOUDY    58  52  80 N8        29.99R
GRAND FRKS AFB MOCLDY    58  52  79 N12       30.00R
GRAND FRKS NWS   N/A     55 N/A N/A VRB7        N/A
DEVILS LAKE    CLOUDY    57  52  82 NE8       30.04R
FARGO          CLOUDY    64  59  83 N14G24    29.93R HAZE
WAHPETON ARPT  CLOUDY    63  59  88 N8        29.93R
$$

 ***** WEATHER ACROSS CENTRAL AND WESTERN NORTH DAKOTA  *****

CITY           SKY/WX    TMP DP  RH WIND       PRES   REMARKS
BISMARCK       CLOUDY    61  54  77 N7        30.07R
MINOT          MOCLDY    53  50  89 NW6       30.08R FOG
JAMESTOWN      CLOUDY    60  57  89 N7        30.01R FOG
MINOT AFB      PTCLDY    54  54  99 N6        30.08R
GARRISON         N/A     57  53  86 N5        30.08R
WILLISTON      CLOUDY    59  50  72 N6        30.14R
DICKINSON      MOCLDY    55  51  86 NW7       30.11R
HETTINGER      CLOUDY    57  52  83 NW5       30.14R
$$

 *****  OTHER AIRPORT OBSERVATIONS IN OUR AREA  *****

CITY           SKY/WX    TMP DP  RH WIND       PRES   REMARKS
WALHALLA       FAIR      54  54 100 MISG      30.06S
GRAFTON AIRPOR FAIR      54  52  94 N9        30.04R
VALLEY CITY AR CLOUDY    59  59 100 NE13      30.00R FOG
CANDO          CLOUDY    52  50  93 N6        30.08R FOG
CAVALIER APRT  FAIR      54  50  87 N8        30.05R
GWINNER          N/A     64  61  88 N8        29.96S
SHEYENNE NWR     N/A     66  60  81 N7        29.95S
ROLLA          CLOUDY    50  50 100 N10       30.09S
 ***** THE ABOVE OBSERVATIONS ARE NON NWS ARE NOT QUALITY
       CONTROLLED AND MAY MIS-REPORT RAIN FOR SNOW...
$$

  *****  WEATHER ACROSS NORTHERN MINNESOTA  *****

CITY           SKY/WX    TMP DP  RH WIND       PRES   REMARKS
FLAG ISLAND    PTCLDY    54  46  76 NW21      29.95S
WARROAD        PTCLDY    54  48  82 NW9       29.98S
ROSEAU         PTCLDY    54  48  82 N12       29.98F
HALLOCK        PTCLDY    54  50  87 N8        30.02S
THF RVR FALLS  CLOUDY    57  54  88 N13       29.97R
BAUDETTE       MOCLDY    58  51  78 NW13      29.92F
WASKISH        CLOUDY    61  57  88 NW10G16   29.91S FOG
CROOKSTON      CLOUDY    57  55  94 N12       29.99R
STEPHEN NDAWN    N/A     55  54  94 N9          N/A
GREENBUSH NDAW   N/A     54  52  94 N5          N/A
$$
  *****  WEATHER ACROSS CENTRAL AND WEST MINNESOTA  *****

CITY           SKY/WX    TMP DP  RH WIND       PRES   REMARKS
FOSSTON        CLOUDY    57  55  94 N10G16    29.95R FOG
BEMIDJI        CLOUDY    62  60  93 NW9       29.91R FOG
PARK RAPIDS    CLOUDY    66  60  81 N8        29.89R HAZE
ELBOW LAKE     RAIN      66  64  91 NW8       29.91R
WADENA         LGT RAIN  64  63  94 N9        29.89R
DETROIT LAKES  CLOUDY    63  59  88 N7        29.93R FOG
MOORHEAD       CLOUDY    63  61  94 N10       29.94R FOG
FERGUS FALLS   LGT RAIN  66  63  88 N6        29.92R
MORRIS MN      CLOUDY    68  66  94 NW13      29.88R
STAPLES        CLOUDY    64  61  88 N8        29.87R
$$
  *****  WEATHER ELSEWHERE ACROSS MINNESOTA  *****

CITY           SKY/WX    TMP DP  RH WIND       PRES   REMARKS
DULUTH         CLOUDY    67  64  90 N9        29.83R
INTRNTL FALLS  CLOUDY    58  57  97 NW8       29.88S FOG
ELY            CLOUDY    59  57  94 CALM      29.86R
CLOQUET        CLOUDY    64  63  94 CALM      29.84R
WHEATON        DRIZZLE   63  63 100 NW10G16   29.93S
BRAINERD       LGT RAIN  66  61  84 N9        29.85R
HIBBING        CLOUDY    61  57  87 N5        29.86R
ALEXANDRIA     CLOUDY    67  64  90 N12       29.88R
SAINT CLOUD    LGT RAIN  69  68  96 NE5       29.80S
MINNEAPOLIS    RAIN      69  68  96 E13       29.80F FOG
$$

  *****  WEATHER ACROSS SOUTH DAKOTA  *****

CITY           SKY/WX    TMP DP  RH WIND       PRES   REMARKS
SIOUX FALLS    LGT RAIN  69  68  96 NE13G21   29.79R
BROOKINGS      CLOUDY    66  63  88 N12       29.86F
WATERTOWN      LGT RAIN  65  62  90 N15       29.90F FOG
HURON          LGT RAIN  67  66  97 N14       29.87F
SISSETON         N/A     64  61  90 N10       29.92R
ABERDEEN       LGT RAIN  65  61  87 N5        29.96S FOG
MITCHELL       CLOUDY    67  65  93 N16G24    29.84R
PIERRE         CLOUDY    64  62  93 N15       29.98S FOG
MOBRIDGE       CLOUDY    65  63  93 N8        30.01R FOG
RAPID CITY     CLOUDY    60  56  86 NW13      30.14R FOG
$$

  *****  SOME WEATHER IN NEARBY STATES *****

CITY           SKY/WX    TMP DP  RH WIND       PRES   REMARKS
GLASGOW MT     CLOUDY    57  53  86 NW5       30.18S
GREAT FALLS MT MOCLDY    47  46  97 SW3       30.26S
CHEYENNE WY    CLOUDY    56  55  97 NE9       30.21S FOG
SCOTTSBLUFF NE CLOUDY    61  58  90 N10       30.13R
OMAHA NE       CLOUDY    79  73  82 W8        29.83R
DES MOINES IA  CLOUDY    79  71  76 S10       29.82R
DAVENPORT IA   MOCLDY    71  67  87 S13       29.92F
CHICAGO IL     PTCLDY    65  62  90 S6        29.97F
EAU CLAIRE WI  LGT RAIN  69  67  93 NE14      29.80F FOG
LA CROSSE WI   CLOUDY    74  67  78 S14       29.83F
$$

  *****  SOME NATIONAL WEATHER *****

CITY           SKY/WX    TMP DP  RH WIND       PRES   REMARKS
LA GUARDIA NY  MOCLDY    73  66  78 S5        30.14S
RALEIGH NC     PTCLDY    71  69  93 SE3       30.10R
ATLANTA GA     CLOUDY    72  68  88 W3        30.13R
NEW ORLEANS LA MOCLDY    76  70  82 CALM      30.11R
OKLAHOMA CITY  MOCLDY    75  71  87 S10       29.92F
ALBUQUERQUE NM CLOUDY    68  60  75 SW3       30.14F
SALT LAKE CITY CLEAR     69  62  78 S3        30.06R
LOS ANGELES CA CLOUDY    64  59  83 NW3       30.02F
BOISE ID       MOCLDY    70  54  56 SE6       30.00R
SEATTLE WA     CLEAR     63  53  70 S5        29.96R
$$

*** WEATHER ACROSS MANITOBA...SASKATCHEWAN AND ONTARIO ***
                ***ONTARIO***

CITY           SKY/WX    TMP DP  RH WIND       PRES   REMARKS
GERALDTON      FOG       61  59  94 W5        29.77R VSB 1
THUNDER BAY    MOCLDY    59  57  94 VRB2      29.79S
SIOUX LOOKOUT  CLOUDY    54  52  94 NW9       29.88R FOG
TORONTO        PTCLDY    63  59  88 N5        30.09R
BIG TROUT LK   MOCLDY    45  43  93 W14G26    29.71
PICKLE LAKE    NOT AVBL
DRYDEN         PTCLDY    52  48  87 NW9G17    29.90S
KENORA         CLOUDY    50  46  87 N8        29.96R
$$
                *** MANITOBA***

CITY           SKY/WX    TMP DP  RH WIND       PRES   REMARKS
BRANDON        PTCLDY    46  46 100 NW6       30.10R
DAUPHIN        CLOUDY    54  46  76 N7        30.10R
ISLAND LAKE    CLOUDY    46  46 100 N10G20    29.90R
PILOT MOUND      N/A     48  46  93 NW3         N/A
THE PAS        NOT AVBL
THOMPSON       MOCLDY    39  37  93 NW6       30.00R
WINNIPEG       MOCLDY    48  45  87 NW8       30.06R
LYNN LAKE      CLEAR     37  37 100 SW6       30.04S
CHURCHILL      MOCLDY    43  39  87 N17       29.86R
GILLAM         MOCLDY    46  41  81 NW21G29   29.85
$$
                ***SASKATCHEWAN***

CITY           SKY/WX    TMP DP  RH WIND       PRES   REMARKS
ESTEVAN        CLOUDY    54  52  94 N6        30.14R SMOKE
KINDERSLEY     PTCLDY    46  45  93 N6        30.19S
LLOYDMINSTER   CLOUDY    46  43  87 SW9       30.17S
PRINCE ALBERT  CLOUDY    41  41 100 W5        30.15R SMOKE
REGINA         PTCLDY    48  46  93 N5        30.17R
YORKTON        CLEAR     43  41  93 W7        30.14R
N. BATTLEFORD  FOG       41  39  93 S2        30.20R VSB 1
LA RONGE       NOT AVBL
SASKATOON      PTCLDY    43  41  93 W5        30.19R
SWIFT CURRENT  MOCLDY    46  45  93 S5        30.19R FOG
$$
NOTE: THESE ARE AUTOMATED STATIONS WITH LIMITED QUALITY CONTROL
      "FAIR" INDICATES FEW OR NO CLOUDS BELOW 12,000 FEET WITH NO
      SIGNIFICANT WEATHER AND/OR OBSTRUCTIONS TO VISIBILITY.
      SKY/WX - SKY CONDITION AND SIGNIFICANT WEATHER.
      TMP - AIR TEMPERATURE.    DP   - DEWPOINT TEMPERATURE.
      RH  - RELATIVE HUMIDITY.  PRES - PRESSURE.
      HX  - HEAT INDEX.         WCI  - WIND CHILL INDEX.
$



USA.gov is the U.S. government's official web portal to all federal, state and local government web resources and services.